Preview of NWS' New Version of Forecast
This preview is not operational and should not be used for support decisions.

Regional Weather Roundup (RWR)

Issued by National Weather Service (NWS)

                            
000
ASUS45 KCYS 231910
RWRWY 

WYOMING REGIONAL WEATHER ROUNDUP
NATIONAL WEATHER SERVICE CHEYENNE WY
100 PM MDT FRI AUG 23 2019

NOTE:  "FAIR" INDICATES FEW OR NO CLOUDS BELOW 12,000 FEET
WITH NO SIGNIFICANT WEATHER AND/OR OBSTRUCTIONS TO VISIBILITY.

WYZ001-232000-
YELLOWSTONE NATIONAL PARK
  
CITY           SKY/WX    TMP DP  RH WIND       PRES   REMARKS
LK YELLOWSTONE   N/A     62  44  51 VRB3      30.19F                  
W YELLOWSTONE  NOT AVBL                                               

$$
WYZ002>013-054>058-071-098>099-232000-
NORTHERN WYOMING
  
CITY           SKY/WX    TMP DP  RH WIND       PRES   REMARKS
JACKSON        FAIR      72  42  34 SW9       30.10F                  
CODY           FAIR      71  51  49 VRB5      30.06F                  
GREYBULL       FAIR      78  52  40 S10       29.97F                  
WORLAND        FAIR      74  53  48 E6        30.00F                  
SHERIDAN       FAIR      75  54  47 VRB3      30.01F                  
BUFFALO        FAIR      71  52  50 CALM      30.05F                  
GILLETTE       FAIR      76  58  53 N14       30.00F                  
HULETT         CLOUDY    68  61  77 NE5       30.03                   
NEWCASTLE      FAIR      73  55  53 W5        30.01                   

$$
WYZ014>020-022>026-101>103-232000-
CENTRAL WYOMING
  
CITY           SKY/WX    TMP DP  RH WIND       PRES   REMARKS
BIG PINEY      FAIR      71  26  18 MISG      30.12F                  
PINEDALE       FAIR      72  18  13 S6        30.13F                  
DUBOIS         FAIR      64  41  42 SE10      30.13                   
LANDER         FAIR      72  48  42 N7        30.04F                  
RIVERTON       FAIR      73  51  46 NE7G20    30.04F                  
CASPER         FAIR      77  53  43 N9        30.04F                  
DOUGLAS        FAIR      78  54  43 VRB7      30.03F                  

$$
WYZ021-027>030-104>119-232000-
SOUTHERN WYOMING
  
CITY           SKY/WX    TMP DP  RH WIND       PRES   REMARKS
EVANSTON       FAIR      73  33  23 SW22G31   30.15F                  
KEMMERER       FAIR      72  21  15 W15G24    30.16                   
ROCK SPRINGS   FAIR      74  37  26 SW7       30.11F                  
DIXON          FAIR      78  22  12 E6        30.11S                  
RAWLINS        FAIR      79  29  16 SW13G25   30.09F                  
SARATOGA       FAIR      81  32  17 NE5       30.13F                  
LARAMIE        FAIR      79  23  12 S7        30.13F                  
CHEYENNE       FAIR      77  50  38 E8        30.09S                  
TORRINGTON     FAIR      81  58  45 SE14G21   29.97F                  
PINE BLUFFS    FAIR      77  55  47 SE12      30.05F                  

$$